Time,TemperatureF,DewpointF,PressureIn,WindDirection,WindDirectionDegrees,WindSpeedMPH,WindSpeedGustMPH,Humidity,HourlyPrecipIn,Conditions,Clouds,dailyrainin,SoftwareType,DateUTC
2013-01-16 00:03:00,29.0,25.0,-100.00,SE,135,1.0,1.0,84,0.00,,,-99.99,,2013-01-16 05:03:00,
2013-01-16 00:12:00,29.0,25.0,-100.00,SSW,210,0.0,1.0,84,0.00,,,-99.99,,2013-01-16 05:12:00,
2013-01-16 00:22:00,29.0,25.0,-100.00,North,0,1.0,2.0,85,0.00,,,-99.99,,2013-01-16 05:22:00,
2013-01-16 00:32:00,29.0,25.0,-100.00,NNE,25,0.0,1.0,85,0.00,,,-99.99,,2013-01-16 05:32:00,
2013-01-16 00:42:00,29.0,25.0,-100.00,ESE,105,1.0,2.0,85,0.00,,,-99.99,,2013-01-16 05:42:00,
2013-01-16 00:53:00,29.0,26.0,-100.00,SSE,150,1.0,3.0,84,0.00,,,-99.99,,2013-01-16 05:53:00,
2013-01-16 01:02:00,29.0,25.0,-100.00,SW,225,1.0,2.0,85,0.00,,,-99.99,,2013-01-16 06:02:00,
2013-01-16 01:12:00,29.0,25.0,-100.00,West,275,1.0,1.0,85,0.00,,,-99.99,,2013-01-16 06:12:00,
2013-01-16 01:22:00,29.0,26.0,-100.00,WNW,300,0.0,1.0,85,0.00,,,-99.99,,2013-01-16 06:22:00,
2013-01-16 01:32:00,29.0,26.0,-100.00,WSW,240,0.0,1.0,85,0.00,,,-99.99,,2013-01-16 06:32:00,
2013-01-16 01:43:00,29.0,26.0,-100.00,SE,125,1.0,1.0,85,0.00,,,-99.99,,2013-01-16 06:43:00,
2013-01-16 01:52:00,29.0,26.0,-100.00,ENE,70,0.0,2.0,85,0.00,,,-99.99,,2013-01-16 06:52:00,
2013-01-16 02:02:00,29.0,26.0,-100.00,ENE,60,1.0,2.0,85,0.00,,,-99.99,,2013-01-16 07:02:00,
2013-01-16 02:12:00,30.0,26.0,-100.00,West,265,0.0,2.0,84,0.00,,,-99.99,,2013-01-16 07:12:00,
2013-01-16 02:22:00,30.0,26.0,-100.00,SSW,195,0.0,1.0,84,0.00,,,-99.99,,2013-01-16 07:22:00,
2013-01-16 02:33:00,30.0,26.0,-100.00,NW,305,1.0,1.0,84,0.00,,,-99.99,,2013-01-16 07:33:00,
2013-01-16 02:42:00,30.0,26.0,-100.00,NNW,340,1.0,2.0,84,0.00,,,-99.99,,2013-01-16 07:42:00,
2013-01-16 02:52:00,30.0,26.0,-100.00,NNW,330,1.0,2.0,84,0.00,,,-99.99,,2013-01-16 07:52:00,
2013-01-16 03:02:00,30.0,26.0,-100.00,South,170,1.0,1.0,84,0.00,,,-99.99,,2013-01-16 08:02:00,
2013-01-16 03:12:00,30.0,26.0,-100.00,West,275,1.0,1.0,84,0.00,,,-99.99,,2013-01-16 08:12:00,
2013-01-16 03:22:00,30.0,26.0,-100.00,North,5,1.0,1.0,84,0.00,,,-99.99,,2013-01-16 08:22:00,
2013-01-16 03:32:00,30.0,26.0,-100.00,SSW,200,1.0,1.0,84,0.00,,,-99.99,,2013-01-16 08:32:00,
2013-01-16 03:42:00,30.0,26.0,-100.00,NE,40,1.0,3.0,83,0.00,,,-99.99,,2013-01-16 08:42:00,
2013-01-16 03:52:00,31.0,25.0,-100.00,East,100,1.0,4.0,80,0.00,,,-99.99,,2013-01-16 08:52:00,
2013-01-16 04:02:00,31.0,25.0,-100.00,NNE,15,1.0,2.0,79,0.00,,,-99.99,,2013-01-16 09:02:00,
2013-01-16 04:12:00,31.0,25.0,-100.00,NNW,340,1.0,2.0,78,0.00,,,-99.99,,2013-01-16 09:12:00,
2013-01-16 04:22:00,31.0,24.0,-100.00,NNE,30,1.0,2.0,73,0.00,,,-99.99,,2013-01-16 09:22:00,
2013-01-16 04:32:00,31.0,23.0,-100.00,North,350,1.0,2.0,71,0.00,,,-99.99,,2013-01-16 09:32:00,
2013-01-16 04:42:00,31.0,23.0,-100.00,NNE,30,1.0,2.0,70,0.00,,,-99.99,,2013-01-16 09:42:00,
2013-01-16 04:52:00,32.0,22.0,-100.00,NNW,340,1.0,3.0,68,0.00,,,-99.99,,2013-01-16 09:52:00,
2013-01-16 05:02:00,32.0,22.0,-100.00,North,355,2.0,4.0,67,0.00,,,-99.99,,2013-01-16 10:02:00,
2013-01-16 05:12:00,32.0,22.0,-100.00,North,5,1.0,3.0,67,0.00,,,-99.99,,2013-01-16 10:12:00,
2013-01-16 05:22:00,32.0,22.0,-100.00,SSW,200,1.0,2.0,68,0.00,,,-99.99,,2013-01-16 10:22:00,
2013-01-16 05:32:00,31.0,23.0,-100.00,NNW,340,2.0,4.0,69,0.03,,,-99.99,,2013-01-16 10:32:00,
2013-01-16 05:42:00,31.0,24.0,-100.00,NE,45,1.0,3.0,74,0.62,,,-99.99,,2013-01-16 10:42:00,
2013-01-16 05:52:00,30.0,25.0,-100.00,NW,325,1.0,4.0,82,1.13,,,-99.99,,2013-01-16 10:52:00,
2013-01-16 06:02:00,29.0,26.0,-100.00,NNW,345,1.0,2.0,87,1.84,,,-99.99,,2013-01-16 11:02:00,
2013-01-16 06:12:00,29.0,27.0,-100.00,North,5,1.0,2.0,89,1.79,,,-99.99,,2013-01-16 11:12:00,
2013-01-16 06:22:00,29.0,27.0,-100.00,North,0,0.0,2.0,90,2.17,,,-99.99,,2013-01-16 11:22:00,
2013-01-16 06:33:00,29.0,27.0,-100.00,North,355,1.0,2.0,91,2.59,,,-99.99,,2013-01-16 11:33:00,
2013-01-16 06:42:00,29.0,27.0,-100.00,North,0,0.0,1.0,91,1.69,,,-99.99,,2013-01-16 11:42:00,
2013-01-16 06:52:00,29.0,27.0,-100.00,North,0,0.0,0.0,92,1.74,,,-99.99,,2013-01-16 11:52:00,
2013-01-16 07:03:00,29.0,27.0,-100.00,North,0,0.0,0.0,92,1.09,,,-99.99,,2013-01-16 12:03:00,
2013-01-16 07:13:00,29.0,27.0,-100.00,North,0,0.0,0.0,92,1.23,,,-99.99,,2013-01-16 12:13:00,
2013-01-16 07:22:00,29.0,27.0,-100.00,North,0,0.0,0.0,92,2.01,,,-99.99,,2013-01-16 12:22:00,
2013-01-16 07:33:00,29.0,27.0,-100.00,North,0,0.0,0.0,93,1.13,,,-99.99,,2013-01-16 12:33:00,
2013-01-16 07:43:00,29.0,27.0,-100.00,North,0,0.0,0.0,93,1.81,,,-99.99,,2013-01-16 12:43:00,
2013-01-16 07:53:00,29.0,28.0,-100.00,North,0,0.0,0.0,93,2.47,,,-99.99,,2013-01-16 12:53:00,
2013-01-16 08:03:00,29.0,28.0,-100.00,North,0,0.0,0.0,93,0.84,,,-99.99,,2013-01-16 13:03:00,
2013-01-16 08:12:00,29.0,28.0,-100.00,North,0,0.0,0.0,93,0.76,,,-99.99,,2013-01-16 13:12:00,
2013-01-16 08:23:00,29.0,28.0,-100.00,North,0,0.0,0.0,93,0.81,,,-99.99,,2013-01-16 13:23:00,
2013-01-16 08:33:00,29.0,28.0,-100.00,North,0,0.0,0.0,94,0.82,,,-99.99,,2013-01-16 13:33:00,
2013-01-16 08:43:00,30.0,28.0,-100.00,North,0,0.0,0.0,94,1.06,,,-99.99,,2013-01-16 13:43:00,
2013-01-16 08:52:00,30.0,28.0,-100.00,North,0,0.0,0.0,94,0.82,,,-99.99,,2013-01-16 13:52:00,
2013-01-16 09:03:00,30.0,28.0,-100.00,North,0,0.0,0.0,94,0.43,,,-99.99,,2013-01-16 14:03:00,
2013-01-16 09:12:00,30.0,29.0,-100.00,North,0,0.0,0.0,94,0.65,,,-99.99,,2013-01-16 14:12:00,
2013-01-16 09:23:00,30.0,29.0,-100.00,North,0,0.0,0.0,94,0.74,,,-99.99,,2013-01-16 14:23:00,
2013-01-16 09:33:00,30.0,29.0,-100.00,North,0,0.0,0.0,94,0.40,,,-99.99,,2013-01-16 14:33:00,
2013-01-16 09:43:00,31.0,29.0,-100.00,North,0,0.0,0.0,94,0.55,,,-99.99,,2013-01-16 14:43:00,
2013-01-16 09:53:00,31.0,29.0,-100.00,North,0,0.0,0.0,94,0.38,,,-99.99,,2013-01-16 14:53:00,
2013-01-16 10:03:00,31.0,29.0,-100.00,North,0,0.0,0.0,94,0.24,,,-99.99,,2013-01-16 15:03:00,
2013-01-16 10:12:00,31.0,29.0,-100.00,North,0,0.0,0.0,94,0.14,,,-99.99,,2013-01-16 15:12:00,
2013-01-16 10:23:00,31.0,30.0,-100.00,North,0,0.0,0.0,94,0.04,,,-99.99,,2013-01-16 15:23:00,
2013-01-16 10:33:00,31.0,30.0,-100.00,North,0,0.0,0.0,94,0.03,,,-99.99,,2013-01-16 15:33:00,
2013-01-16 10:43:00,31.0,30.0,-100.00,North,0,0.0,0.0,94,0.04,,,-99.99,,2013-01-16 15:43:00,
2013-01-16 10:52:00,31.0,30.0,-100.00,North,0,0.0,0.0,94,0.01,,,-99.99,,2013-01-16 15:52:00,
2013-01-16 11:04:00,32.0,30.0,-100.00,North,0,0.0,0.0,94,0.03,,,-99.99,,2013-01-16 16:04:00,
2013-01-16 11:12:00,32.0,31.0,-100.00,North,0,0.0,0.0,94,0.03,,,-99.99,,2013-01-16 16:12:00,
2013-01-16 11:22:00,32.0,31.0,-100.00,North,0,0.0,0.0,94,0.03,,,-99.99,,2013-01-16 16:22:00,
2013-01-16 11:33:00,32.0,31.0,-100.00,North,0,0.0,0.0,94,0.03,,,-99.99,,2013-01-16 16:33:00,
2013-01-16 11:42:00,33.0,31.0,-100.00,North,0,0.0,0.0,94,0.01,,,-99.99,,2013-01-16 16:42:00,
2013-01-16 11:52:00,32.0,31.0,-100.00,North,0,0.0,0.0,94,0.01,,,-99.99,,2013-01-16 16:52:00,
2013-01-16 12:03:00,33.0,31.0,-100.00,North,0,0.0,0.0,94,0.00,,,-99.99,,2013-01-16 17:03:00,
2013-01-16 12:12:00,33.0,31.0,-100.00,North,0,0.0,0.0,94,0.00,,,-99.99,,2013-01-16 17:12:00,
2013-01-16 12:23:00,33.0,31.0,-100.00,North,0,0.0,0.0,94,0.00,,,-99.99,,2013-01-16 17:23:00,
2013-01-16 12:33:00,33.0,31.0,-100.00,North,0,0.0,0.0,94,0.01,,,-99.99,,2013-01-16 17:33:00,
2013-01-16 12:43:00,33.0,31.0,-100.00,North,0,0.0,0.0,94,0.06,,,-99.99,,2013-01-16 17:43:00,
2013-01-16 12:53:00,33.0,31.0,-100.00,North,0,0.0,0.0,94,0.20,,,-99.99,,2013-01-16 17:53:00,
2013-01-16 13:03:00,33.0,31.0,-100.00,North,0,0.0,0.0,94,0.38,,,-99.99,,2013-01-16 18:03:00,
2013-01-16 13:13:00,33.0,31.0,-100.00,North,0,0.0,0.0,94,0.47,,,-99.99,,2013-01-16 18:13:00,
2013-01-16 13:23:00,33.0,32.0,-100.00,North,0,0.0,0.0,94,0.86,,,-99.99,,2013-01-16 18:23:00,
2013-01-16 13:33:00,33.0,32.0,-100.00,North,0,0.0,0.0,94,0.28,,,-99.99,,2013-01-16 18:33:00,
2013-01-16 13:42:00,33.0,32.0,-100.00,North,0,0.0,0.0,94,0.14,,,-99.99,,2013-01-16 18:42:00,
2013-01-16 13:53:00,33.0,31.0,-100.00,North,0,0.0,0.0,94,0.20,,,-99.99,,2013-01-16 18:53:00,
2013-01-16 14:03:00,33.0,31.0,-100.00,North,0,0.0,0.0,94,0.13,,,-99.99,,2013-01-16 19:03:00,
2013-01-16 14:12:00,32.0,31.0,-100.00,North,0,0.0,0.0,94,0.08,,,-99.99,,2013-01-16 19:12:00,
2013-01-16 14:23:00,32.0,31.0,-100.00,North,0,0.0,0.0,94,0.04,,,-99.99,,2013-01-16 19:23:00,
2013-01-16 14:33:00,33.0,31.0,-100.00,North,0,0.0,0.0,94,0.04,,,-99.99,,2013-01-16 19:33:00,
2013-01-16 14:43:00,33.0,31.0,-100.00,North,0,0.0,0.0,94,0.00,,,-99.99,,2013-01-16 19:43:00,
2013-01-16 14:52:00,33.0,31.0,-100.00,North,0,0.0,0.0,94,0.00,,,-99.99,,2013-01-16 19:52:00,
2013-01-16 15:03:00,33.0,31.0,-100.00,North,0,0.0,0.0,94,0.00,,,-99.99,,2013-01-16 20:03:00,
2013-01-16 15:12:00,32.0,31.0,-100.00,North,0,0.0,0.0,94,0.00,,,-99.99,,2013-01-16 20:12:00,
2013-01-16 15:23:00,32.0,31.0,-100.00,North,0,0.0,0.0,94,0.00,,,-99.99,,2013-01-16 20:23:00,
2013-01-16 15:33:00,33.0,31.0,-100.00,North,0,0.0,0.0,94,0.01,,,-99.99,,2013-01-16 20:33:00,
2013-01-16 15:42:00,33.0,31.0,-100.00,North,0,0.0,0.0,95,0.01,,,-99.99,,2013-01-16 20:42:00,
2013-01-16 15:53:00,33.0,31.0,-100.00,North,0,0.0,0.0,95,0.01,,,-99.99,,2013-01-16 20:53:00,
2013-01-16 16:03:00,33.0,32.0,-100.00,North,0,0.0,0.0,95,0.25,,,-99.99,,2013-01-16 21:03:00,
2013-01-16 16:12:00,33.0,31.0,-100.00,North,0,0.0,0.0,95,0.23,,,-99.99,,2013-01-16 21:12:00,
2013-01-16 16:22:00,33.0,31.0,-100.00,North,0,0.0,0.0,95,0.06,,,-99.99,,2013-01-16 21:22:00,
2013-01-16 16:33:00,33.0,31.0,-100.00,North,0,0.0,0.0,95,0.04,,,-99.99,,2013-01-16 21:33:00,
2013-01-16 16:43:00,33.0,31.0,-100.00,North,0,0.0,0.0,95,0.01,,,-99.99,,2013-01-16 21:43:00,
2013-01-16 16:52:00,33.0,31.0,-100.00,North,0,0.0,0.0,95,0.00,,,-99.99,,2013-01-16 21:52:00,
2013-01-16 17:03:00,33.0,31.0,-100.00,North,0,0.0,0.0,95,0.00,,,-99.99,,2013-01-16 22:03:00,
2013-01-16 17:12:00,33.0,31.0,-100.00,North,0,0.0,0.0,95,0.00,,,-99.99,,2013-01-16 22:12:00,
2013-01-16 17:23:00,33.0,31.0,-100.00,North,0,0.0,0.0,95,0.00,,,-99.99,,2013-01-16 22:23:00,
2013-01-16 17:33:00,33.0,31.0,-100.00,North,0,0.0,0.0,95,0.00,,,-99.99,,2013-01-16 22:33:00,
2013-01-16 17:43:00,33.0,31.0,-100.00,North,0,0.0,0.0,95,0.00,,,-99.99,,2013-01-16 22:43:00,
2013-01-16 17:53:00,32.0,31.0,-100.00,North,0,0.0,0.0,95,0.00,,,-99.99,,2013-01-16 22:53:00,
2013-01-16 18:03:00,33.0,31.0,-100.00,North,0,0.0,0.0,95,0.00,,,-99.99,,2013-01-16 23:03:00,
2013-01-16 18:12:00,32.0,31.0,-100.00,North,0,0.0,0.0,95,0.00,,,-99.99,,2013-01-16 23:12:00,
2013-01-16 18:23:00,32.0,31.0,-100.00,North,0,0.0,0.0,95,0.00,,,-99.99,,2013-01-16 23:23:00,
2013-01-16 18:32:00,32.0,31.0,-100.00,North,0,0.0,0.0,96,0.00,,,-99.99,,2013-01-16 23:32:00,
2013-01-16 18:42:00,32.0,31.0,-100.00,North,0,0.0,0.0,96,0.00,,,-99.99,,2013-01-16 23:42:00,
2013-01-16 18:52:00,32.0,31.0,-100.00,North,0,0.0,0.0,96,0.00,,,-99.99,,2013-01-16 23:52:00,
2013-01-16 19:02:00,32.0,31.0,-100.00,North,0,0.0,0.0,96,0.00,,,-99.99,,2013-01-17 00:02:00,
2013-01-16 19:12:00,31.0,31.0,-100.00,North,0,0.0,0.0,96,0.00,,,-99.99,,2013-01-17 00:12:00,
2013-01-16 19:22:00,31.0,30.0,-100.00,North,0,0.0,0.0,96,0.00,,,-99.99,,2013-01-17 00:22:00,
2013-01-16 19:32:00,31.0,30.0,-100.00,North,0,0.0,0.0,96,0.00,,,-99.99,,2013-01-17 00:32:00,
2013-01-16 19:42:00,31.0,31.0,-100.00,North,0,0.0,0.0,96,0.00,,,-99.99,,2013-01-17 00:42:00,
2013-01-16 19:52:00,31.0,31.0,-100.00,North,0,0.0,0.0,96,0.00,,,-99.99,,2013-01-17 00:52:00,
2013-01-16 20:02:00,32.0,31.0,-100.00,North,0,0.0,0.0,96,0.00,,,-99.99,,2013-01-17 01:02:00,
2013-01-16 20:12:00,32.0,31.0,-100.00,North,0,0.0,0.0,96,0.00,,,-99.99,,2013-01-17 01:12:00,
2013-01-16 20:22:00,32.0,31.0,-100.00,North,0,0.0,0.0,96,0.00,,,-99.99,,2013-01-17 01:22:00,
2013-01-16 20:33:00,32.0,31.0,-100.00,North,0,0.0,0.0,96,0.00,,,-99.99,,2013-01-17 01:33:00,
2013-01-16 20:42:00,32.0,31.0,-100.00,North,0,0.0,0.0,96,0.00,,,-99.99,,2013-01-17 01:42:00,
2013-01-16 20:52:00,32.0,31.0,-100.00,North,0,0.0,0.0,96,0.00,,,-99.99,,2013-01-17 01:52:00,
2013-01-16 21:02:00,31.0,30.0,-100.00,North,0,0.0,0.0,96,0.00,,,-99.99,,2013-01-17 02:02:00,
2013-01-16 21:12:00,31.0,31.0,-100.00,North,0,0.0,0.0,96,0.00,,,-99.99,,2013-01-17 02:12:00,
2013-01-16 21:22:00,31.0,31.0,-100.00,North,0,0.0,0.0,96,0.00,,,-99.99,,2013-01-17 02:22:00,
2013-01-16 21:32:00,31.0,30.0,-100.00,North,0,0.0,0.0,96,0.00,,,-99.99,,2013-01-17 02:32:00,
2013-01-16 21:42:00,31.0,30.0,-100.00,North,0,0.0,0.0,96,0.00,,,-99.99,,2013-01-17 02:42:00,
2013-01-16 21:52:00,31.0,30.0,-100.00,North,0,0.0,0.0,96,0.00,,,-99.99,,2013-01-17 02:52:00,
2013-01-16 22:03:00,31.0,30.0,-100.00,North,0,0.0,0.0,96,0.00,,,-99.99,,2013-01-17 03:03:00,
2013-01-16 22:12:00,31.0,30.0,-100.00,North,0,0.0,0.0,96,0.00,,,-99.99,,2013-01-17 03:12:00,
2013-01-16 22:22:00,31.0,30.0,-100.00,North,0,0.0,0.0,96,0.00,,,-99.99,,2013-01-17 03:22:00,
2013-01-16 22:32:00,31.0,30.0,-100.00,North,0,0.0,0.0,96,0.00,,,-99.99,,2013-01-17 03:32:00,
2013-01-16 22:42:00,31.0,30.0,-100.00,North,0,0.0,0.0,96,0.00,,,-99.99,,2013-01-17 03:42:00,
2013-01-16 22:52:00,31.0,30.0,-100.00,North,0,0.0,0.0,96,0.00,,,-99.99,,2013-01-17 03:52:00,
2013-01-16 23:02:00,31.0,30.0,-100.00,North,0,0.0,0.0,96,0.00,,,-99.99,,2013-01-17 04:02:00,
2013-01-16 23:12:00,30.0,29.0,-100.00,North,0,0.0,0.0,96,0.00,,,-99.99,,2013-01-17 04:12:00,
2013-01-16 23:22:00,30.0,29.0,-100.00,North,0,0.0,0.0,96,0.00,,,-99.99,,2013-01-17 04:22:00,
2013-01-16 23:32:00,30.0,29.0,-100.00,North,0,0.0,0.0,96,0.00,,,-99.99,,2013-01-17 04:32:00,
2013-01-16 23:42:00,29.0,28.0,-100.00,North,0,0.0,0.0,96,0.00,,,-99.99,,2013-01-17 04:42:00,
2013-01-16 23:52:00,29.0,28.0,-100.00,North,0,0.0,0.0,96,0.00,,,-99.99,,2013-01-17 04:52:00,